Location: Beverley
(50.2667°N, 107.9667°W)
Time: 16:50:04
(UTC+00:00)

XW-2A - Pass Details

Date: 01 July 2022
Orbit: 396 x 406 km, 97.2° (Epoch: 10 August)

Event Time Altitude Azimuth Distance (km) Brightness Sun altitude
Exits shadow 04:03:44 - 169° (S) 1,993 ? -5.3°
Reaches altitude 10° 04:05:00 10° 170° (S) 1,443 ? -5.4°
Maximum altitude 04:08:05 78° 257° (WSW) 413 ? -5.7°
Drops below altitude 10° 04:11:11 10° 345° (NNW) 1,454 ? -6.1°
Sets 04:13:10 0° 346° (NNW) 2,318 ? -6.3°
